Location: Couloutre
(47.4081°N, 3.2259°E)
Time: 15:39:03
(UTC+00:00)

STARLINK-43 - Pass Details

Date: 27 February 2020
Orbit: 472 x 474 km, 53.0° (Epoch: 07 April)

Event Time Altitude Azimuth Distance (km) Brightness Sun altitude
Rises 18:36:52 0° 298° (WNW) 2,536 8.2 -12.4°
Reaches altitude 10° 18:39:02 10° 297° (WNW) 1,655 7.1 -12.7°
Maximum altitude 18:42:46 83° 211° (SSW) 486 3.3 -13.4°
Enters shadow 18:45:11 21° 123° (ESE) 1,134 4.7 -13.8°
